Location: Trois-Rivi�res
(46.3500°N, 72.5500°W)
Time: 01:15:25
(UTC-04:00)

ISS - Pass Details

Date: 10 October 2017
Orbit: 401 x 408 km, 51.6° (Epoch: 20 October)

Event Time Altitude Azimuth Distance (km) Brightness Sun altitude
Rises 19:41:20 0° 297° (WNW) 2,328 1.4 -16.1°
Reaches altitude 10° 19:43:25 10° 298° (WNW) 1,467 0.1 -16.5°
Maximum altitude 19:46:43 82° 24° (NNE) 415 -3.9 -17.1°
Enters shadow 19:47:24 53° 106° (ESE) 508 -3.8 -17.2°
